EAG5511 SBPA-SBFL

Flight info

Callsign EAG5511
Flight time 0h 38m
Altitude 37000
Route ANLER UM540 DADMO
Aircraft C700/M-SBDGHM1RWXY/LB2

Departure

Time 2026-04-21 16:19
Airport Porto Alegre-Salgado Filho International Airport (SBPA)

Arrival

Time 2026-04-21 16:58
Airport Hercílio Luz International Airport (SBFL)
Time Latitude Longitude Altitude Speed Heading
2026-04-21 16:10 -29.99133 -51.17436 41 ft 0 kts
2026-04-21 16:11 -29.99136 -51.17436 13 ft 2 kts 13°
2026-04-21 16:11 -29.99147 -51.17449 13 ft 2 kts 103°
2026-04-21 16:12 -29.99145 -51.17455 13 ft 0 kts 133°
2026-04-21 16:13 -29.99158 -51.17439 13 ft 7 kts 132°
2026-04-21 16:13 -29.99211 -51.17392 13 ft 12 kts 179°
2026-04-21 16:14 -29.99268 -51.17342 13 ft 12 kts 90°
2026-04-21 16:14 -29.99270 -51.17241 13 ft 13 kts 91°
2026-04-21 16:14 -29.99273 -51.17133 13 ft 14 kts 92°
2026-04-21 16:14 -29.99275 -51.17019 13 ft 15 kts 90°
2026-04-21 16:15 -29.99277 -51.16897 13 ft 16 kts 91°
2026-04-21 16:15 -29.99280 -51.16769 13 ft 17 kts 91°
2026-04-21 16:15 -29.99282 -51.16632 13 ft 18 kts 91°
2026-04-21 16:15 -29.99285 -51.16488 13 ft 18 kts 91°
2026-04-21 16:16 -29.99288 -51.16338 13 ft 19 kts 91°
2026-04-21 16:16 -29.99339 -51.16229 14 ft 14 kts 184°
2026-04-21 16:16 -29.99376 -51.16230 14 ft 0 kts 181°
2026-04-21 16:16 -29.99386 -51.16231 14 ft 6 kts 181°
2026-04-21 16:17 -29.99465 -51.16204 17 ft 18 kts 132°
2026-04-21 16:17 -29.99489 -51.16017 15 ft 28 kts 93°
2026-04-21 16:17 -29.99496 -51.15928 15 ft 1 kts 12°
2026-04-21 16:17 -29.99486 -51.15956 16 ft 0 kts 271°
2026-04-21 16:18 -29.99483 -51.16084 16 ft 48 kts 272°
2026-04-21 16:18 -29.99468 -51.16822 12 ft 133 kts 271°
2026-04-21 16:19 -29.99439 -51.18178 146 ft 202 kts 271°
2026-04-21 16:19 -29.99413 -51.19877 1310 ft 220 kts 270°
2026-04-21 16:19 -29.99373 -51.21688 2806 ft 229 kts 272°
2026-04-21 16:19 -29.99181 -51.23509 4377 ft 229 kts 289°
2026-04-21 16:20 -29.98533 -51.25149 5852 ft 228 kts 304°
2026-04-21 16:20 -29.97507 -51.26522 7335 ft 225 kts 319°
2026-04-21 16:20 -29.96135 -51.27560 8355 ft 251 kts 335°
2026-04-21 16:20 -29.94348 -51.28070 9261 ft 278 kts 353°
2026-04-21 16:21 -29.92382 -51.28006 10492 ft 290 kts 359°
2026-04-21 16:21 -29.90278 -51.27926 11346 ft 314 kts 358°
2026-04-21 16:21 -29.88075 -51.27841 12731 ft 318 kts 358°
2026-04-21 16:21 -29.85839 -51.27744 14005 ft 326 kts 358°
2026-04-21 16:22 -29.83579 -51.27653 15110 ft 332 kts 358°
2026-04-21 16:22 -29.81251 -51.27559 16207 ft 338 kts 358°
2026-04-21 16:22 -29.78877 -51.27465 17302 ft 344 kts 358°
2026-04-21 16:22 -29.76461 -51.27368 18375 ft 350 kts 358°
2026-04-21 16:23 -29.74005 -51.27267 19284 ft 356 kts 358°
2026-04-21 16:23 -29.71508 -51.27168 20177 ft 362 kts 357°
2026-04-21 16:23 -29.68965 -51.26857 21046 ft 374 kts
2026-04-21 16:23 -29.66436 -51.26010 21920 ft 384 kts 14°
2026-04-21 16:24 -29.63884 -51.25025 22758 ft 390 kts 13°
2026-04-21 16:24 -29.61288 -51.24041 23584 ft 396 kts 13°
2026-04-21 16:24 -29.58689 -51.23053 24282 ft 401 kts 14°
2026-04-21 16:24 -29.56130 -51.21680 25043 ft 412 kts 25°
2026-04-21 16:25 -29.53751 -51.19769 25787 ft 423 kts 35°
2026-04-21 16:25 -29.51648 -51.17344 26525 ft 435 kts 46°
2026-04-21 16:25 -29.49934 -51.14429 27148 ft 447 kts 56°
2026-04-21 16:25 -29.48605 -51.11160 27786 ft 458 kts 67°
2026-04-21 16:26 -29.47671 -51.07634 28399 ft 466 kts 72°
2026-04-21 16:26 -29.46799 -51.04035 29024 ft 471 kts 71°
2026-04-21 16:26 -29.45824 -51.00427 29762 ft 474 kts 69°
2026-04-21 16:26 -29.44803 -50.96810 30372 ft 480 kts 69°
2026-04-21 16:27 -29.43815 -50.93116 30901 ft 487 kts 70°
2026-04-21 16:27 -29.42859 -50.89428 31381 ft 493 kts 70°
2026-04-21 16:27 -29.41848 -50.85644 31833 ft 499 kts 70°
2026-04-21 16:27 -29.40801 -50.81828 32264 ft 505 kts 70°
2026-04-21 16:28 -29.39757 -50.77968 32765 ft 509 kts 71°
2026-04-21 16:28 -29.38717 -50.74064 33276 ft 513 kts 71°
2026-04-21 16:28 -29.37669 -50.70155 33882 ft 514 kts 71°
2026-04-21 16:28 -29.36604 -50.66241 34414 ft 515 kts 71°
2026-04-21 16:29 -29.35539 -50.62323 34975 ft 514 kts 71°
2026-04-21 16:29 -29.34483 -50.58411 35585 ft 513 kts 71°
2026-04-21 16:29 -29.33444 -50.54558 36127 ft 513 kts 71°
2026-04-21 16:29 -29.32381 -50.50654 36630 ft 513 kts 71°
2026-04-21 16:30 -29.31315 -50.46754 37059 ft 515 kts 71°
2026-04-21 16:30 -29.30206 -50.42798 37064 ft 526 kts 68°
2026-04-21 16:30 -29.28655 -50.38976 37069 ft 534 kts 57°
2026-04-21 16:31 -29.24033 -50.32257 37091 ft 541 kts 38°
2026-04-21 16:31 -29.18155 -50.27040 37083 ft 539 kts 31°
2026-04-21 16:32 -29.12133 -50.21897 37095 ft 540 kts 31°
2026-04-21 16:32 -29.06112 -50.16774 37091 ft 539 kts 31°
2026-04-21 16:33 -29.00096 -50.11657 37095 ft 539 kts 31°
2026-04-21 16:33 -28.94074 -50.06542 37097 ft 540 kts 31°
2026-04-21 16:34 -28.88089 -50.01470 37084 ft 539 kts 31°
2026-04-21 16:34 -28.82069 -49.96372 37076 ft 539 kts 31°
2026-04-21 16:35 -28.76046 -49.91281 37088 ft 538 kts 32°
2026-04-21 16:35 -28.70014 -49.86190 37091 ft 539 kts 31°
2026-04-21 16:36 -28.64027 -49.81138 37091 ft 537 kts 32°
2026-04-21 16:36 -28.58095 -49.76127 36799 ft 532 kts 31°
2026-04-21 16:36 -28.55116 -49.73630 36093 ft 530 kts 31°
2026-04-21 16:37 -28.52173 -49.71156 35433 ft 522 kts 31°
2026-04-21 16:37 -28.49285 -49.68720 34795 ft 512 kts 31°
2026-04-21 16:37 -28.46447 -49.66333 34161 ft 506 kts 31°
2026-04-21 16:37 -28.43598 -49.63953 33439 ft 514 kts 31°
2026-04-21 16:38 -28.40691 -49.61527 32710 ft 520 kts 31°
2026-04-21 16:38 -28.37827 -49.59115 32028 ft 517 kts 32°
2026-04-21 16:38 -28.34954 -49.56695 31372 ft 511 kts 31°
2026-04-21 16:38 -28.32105 -49.54317 30715 ft 509 kts 31°
2026-04-21 16:39 -28.29214 -49.51917 29975 ft 518 kts 31°
2026-04-21 16:39 -28.26325 -49.49497 29271 ft 514 kts 32°
2026-04-21 16:39 -28.23441 -49.47075 28600 ft 519 kts 32°
2026-04-21 16:39 -28.20536 -49.44656 27929 ft 517 kts 32°
2026-04-21 16:40 -28.17651 -49.42259 27271 ft 511 kts 33°
2026-04-21 16:40 -28.14801 -49.39878 26615 ft 506 kts 33°
2026-04-21 16:40 -28.12027 -49.37559 25998 ft 499 kts 33°
2026-04-21 16:40 -28.09246 -49.35253 25378 ft 493 kts 33°
2026-04-21 16:41 -28.07378 -49.33705 24953 ft 490 kts 33°
2026-04-21 16:41 -28.03745 -49.30729 24133 ft 484 kts 33°
2026-04-21 16:41 -28.01027 -49.28517 23490 ft 479 kts 33°
2026-04-21 16:41 -27.98353 -49.26318 22869 ft 471 kts 33°
2026-04-21 16:42 -27.95715 -49.24150 22266 ft 466 kts 33°
2026-04-21 16:42 -27.93103 -49.22017 21671 ft 460 kts 33°
2026-04-21 16:42 -27.90519 -49.19912 21072 ft 455 kts 33°
2026-04-21 16:42 -27.88008 -49.17859 20504 ft 450 kts 33°
2026-04-21 16:43 -27.85490 -49.15796 19935 ft 444 kts 33°
2026-04-21 16:43 -27.83026 -49.13722 19360 ft 439 kts 36°
2026-04-21 16:43 -27.80669 -49.11547 18718 ft 436 kts 36°
2026-04-21 16:43 -27.78350 -49.09405 18105 ft 422 kts 36°
2026-04-21 16:44 -27.76126 -49.07371 17616 ft 401 kts 35°
2026-04-21 16:44 -27.74001 -49.05442 17150 ft 385 kts 35°
2026-04-21 16:44 -27.71941 -49.03546 16687 ft 381 kts 38°
2026-04-21 16:44 -27.70147 -49.01389 16206 ft 386 kts 49°
2026-04-21 16:45 -27.68693 -48.98830 15695 ft 389 kts 60°
2026-04-21 16:45 -27.67679 -48.95998 15183 ft 389 kts 71°
2026-04-21 16:45 -27.67152 -48.93039 14678 ft 380 kts 82°
2026-04-21 16:45 -27.67105 -48.90103 14175 ft 369 kts 93°
2026-04-21 16:46 -27.67505 -48.87285 13678 ft 360 kts 103°
2026-04-21 16:46 -27.68305 -48.84656 13198 ft 350 kts 114°
2026-04-21 16:46 -27.69301 -48.82195 12736 ft 340 kts 114°
2026-04-21 16:46 -27.70244 -48.79815 12301 ft 332 kts 114°
2026-04-21 16:47 -27.71177 -48.77457 11867 ft 326 kts 114°
2026-04-21 16:47 -27.72097 -48.75149 11438 ft 319 kts 114°
2026-04-21 16:47 -27.73001 -48.72888 11024 ft 314 kts 114°
2026-04-21 16:47 -27.73890 -48.70648 10611 ft 310 kts 114°
2026-04-21 16:48 -27.74764 -48.68447 10213 ft 307 kts 114°
2026-04-21 16:48 -27.75637 -48.66246 9793 ft 305 kts 114°
2026-04-21 16:48 -27.76497 -48.64081 9374 ft 299 kts 114°
2026-04-21 16:48 -27.77342 -48.61959 8982 ft 294 kts 113°
2026-04-21 16:49 -27.78162 -48.59895 8598 ft 290 kts 113°
2026-04-21 16:49 -27.78976 -48.57832 8223 ft 286 kts 112°
2026-04-21 16:49 -27.79782 -48.55797 7846 ft 282 kts 112°
2026-04-21 16:49 -27.80578 -48.53790 7482 ft 277 kts 113°
2026-04-21 16:50 -27.81361 -48.51814 7118 ft 274 kts 112°
2026-04-21 16:50 -27.82132 -48.49863 6756 ft 271 kts 111°
2026-04-21 16:50 -27.82895 -48.47929 6395 ft 267 kts 112°
2026-04-21 16:50 -27.83596 -48.46156 6063 ft 229 kts 111°
2026-04-21 16:51 -27.83961 -48.44516 5774 ft 214 kts 93°
2026-04-21 16:51 -27.83957 -48.42854 5500 ft 215 kts 81°
2026-04-21 16:51 -27.83581 -48.41222 5217 ft 216 kts 68°
2026-04-21 16:51 -27.82857 -48.39742 4939 ft 217 kts 53°
2026-04-21 16:52 -27.81868 -48.38450 4645 ft 218 kts 47°
2026-04-21 16:52 -27.80801 -48.37234 4358 ft 219 kts 42°
2026-04-21 16:52 -27.79644 -48.36108 4068 ft 220 kts 38°
2026-04-21 16:52 -27.78383 -48.35139 3769 ft 220 kts 22°
2026-04-21 16:53 -27.76959 -48.35084 3498 ft 197 kts 340°
2026-04-21 16:53 -27.76008 -48.36164 3283 ft 202 kts 296°
2026-04-21 16:53 -27.75664 -48.37676 3046 ft 200 kts 287°
2026-04-21 16:53 -27.75153 -48.39107 2795 ft 194 kts 303°
2026-04-21 16:54 -27.74435 -48.40382 2544 ft 191 kts 306°
2026-04-21 16:54 -27.73759 -48.41609 2309 ft 179 kts 304°
2026-04-21 16:54 -27.73130 -48.42770 2071 ft 166 kts 304°
2026-04-21 16:54 -27.72562 -48.43817 1859 ft 150 kts 305°
2026-04-21 16:55 -27.72009 -48.44824 1662 ft 151 kts 304°
2026-04-21 16:55 -27.71472 -48.45817 1457 ft 148 kts 304°
2026-04-21 16:55 -27.70940 -48.46798 1265 ft 145 kts 307°
2026-04-21 16:55 -27.70441 -48.47723 1097 ft 135 kts 307°
2026-04-21 16:56 -27.69960 -48.48594 911 ft 131 kts 304°
2026-04-21 16:56 -27.69521 -48.49458 823 ft 125 kts 301°
2026-04-21 16:56 -27.69113 -48.50312 689 ft 121 kts 302°
2026-04-21 16:56 -27.68705 -48.51136 577 ft 121 kts 304°
2026-04-21 16:57 -27.68285 -48.51961 420 ft 123 kts 304°
2026-04-21 16:57 -27.67862 -48.52743 154 ft 111 kts 309°
2026-04-21 16:57 -27.67495 -48.53406 22 ft 86 kts 301°
2026-04-21 16:57 -27.67248 -48.53865 18 ft 55 kts 299°
2026-04-21 16:58 -27.67079 -48.54178 22 ft 40 kts 302°
2026-04-21 16:58 -27.66976 -48.54369 22 ft 25 kts 301°
2026-04-21 16:58 -27.66944 -48.54494 24 ft 15 kts 234°
2026-04-21 16:58 -27.66994 -48.54534 21 ft 8 kts 212°
2026-04-21 16:59 -27.67050 -48.54572 21 ft 11 kts 211°
2026-04-21 16:59 -27.67117 -48.54625 21 ft 13 kts 240°
2026-04-21 16:59 -27.67098 -48.54717 21 ft 12 kts 256°
2026-04-21 16:59 -27.67161 -48.54770 21 ft 9 kts 210°
2026-04-21 17:00 -27.67168 -48.54775 21 ft 0 kts 210°